TimePST,TemperatureF,Dew PointF,Humidity,Sea Level PressureIn,VisibilityMPH,Wind Direction,Wind SpeedMPH,Gust SpeedMPH,PrecipitationIn,Events,Conditions,WindDirDegrees,DateUTC
12:00 AM,40.6,37.0,87,29.95,-9999.0,SSE,18.4,-,0.03,,Unknown,150,2013-01-06 08:00:00
1:00 AM,40.8,37.0,86,29.94,-9999.0,SE,17.3,-,N/A,,Unknown,140,2013-01-06 09:00:00
2:00 AM,41.0,37.0,86,29.94,-9999.0,SSE,17.3,24.2,0.02,,Unknown,150,2013-01-06 10:00:00
3:00 AM,40.6,36.7,86,29.96,-9999.0,SE,17.3,24.2,0.02,,Unknown,140,2013-01-06 11:00:00
4:00 AM,41,37,80,29.96,,SE,13.8,,,,,140,2013-01-06 12:00:00
4:00 AM,41.2,36.9,85,29.96,-9999.0,SE,13.8,-,0.04,,Unknown,140,2013-01-06 12:00:00
5:00 AM,40.8,36.9,86,29.95,-9999.0,SSE,19.6,-,0.05,,Unknown,150,2013-01-06 13:00:00
6:00 AM,40.3,36.9,88,29.94,-9999.0,SE,20.7,-,0.06,,Unknown,140,2013-01-06 14:00:00
7:00 AM,38.8,35.8,89,29.93,-9999.0,ESE,23.0,-,N/A,,Unknown,120,2013-01-06 15:00:00
8:00 AM,37.6,35.4,92,29.93,-9999.0,ESE,25.3,-,0.06,,Unknown,120,2013-01-06 16:00:00
9:00 AM,39.2,37.0,92,29.93,-9999.0,ESE,24.2,-,0.05,,Unknown,120,2013-01-06 17:00:00
10:00 AM,40,37,84,29.94,,ESE,24.2,,,,,110,2013-01-06 18:00:00
10:00 AM,40.1,36.9,88,29.94,-9999.0,ESE,24.2,-,N/A,,Unknown,110,2013-01-06 18:00:00
11:00 AM,41.2,37.6,87,29.94,-9999.0,ESE,24.2,-,N/A,,Unknown,120,2013-01-06 19:00:00
12:00 PM,41.4,37.8,87,29.93,-9999.0,ESE,20.7,-,N/A,,Unknown,110,2013-01-06 20:00:00
1:00 PM,41.7,37.6,85,29.91,-9999.0,ESE,25.3,-,N/A,,Unknown,110,2013-01-06 21:00:00
2:00 PM,42.4,38.1,85,29.89,-9999.0,ESE,21.9,-,N/A,,Unknown,110,2013-01-06 22:00:00
3:00 PM,43.2,37.9,82,29.85,-9999.0,ESE,27.6,-,N/A,,Unknown,110,2013-01-06 23:00:00
4:00 PM,43,38,77,29.84,,ESE,29.9,,,,,110,2013-01-07 00:00:00
4:00 PM,42.8,38.1,84,29.84,-9999.0,ESE,29.9,-,N/A,,Unknown,110,2013-01-07 00:00:00
5:00 PM,43.2,38.5,84,29.83,-9999.0,ESE,29.9,-,N/A,,Unknown,110,2013-01-07 01:00:00
7:00 PM,43.0,38.1,83,29.77,-9999.0,ESE,39.1,-,N/A,,Unknown,110,2013-01-07 03:00:00
8:00 PM,42.6,38.1,84,29.75,-9999.0,ESE,34.5,42.6,N/A,,Unknown,110,2013-01-07 04:00:00
9:00 PM,43.0,38.7,85,29.73,-9999.0,ESE,35.7,42.6,N/A,,Unknown,110,2013-01-07 05:00:00
10:00 PM,42,38,82,29.70,,ESE,40.3,,,,,120,2013-01-07 06:00:00
10:00 PM,41.9,38.3,87,29.70,-9999.0,ESE,40.3,48.3,N/A,,Unknown,120,2013-01-07 06:00:00
11:00 PM,41.2,38.3,89,29.69,-9999.0,ESE,41.4,51.8,N/A,,Unknown,120,2013-01-07 07:00:00